Location: Poughquag
(41.6090°N, 73.6820°W)
Time: 09:46:22
(UTC-05:00)

SR - Pass Details

Date: 10 December 2023
Orbit: 574 x 868 km, 66.7° (Epoch: 25 February)

Event Time Altitude Azimuth Distance (km) Brightness Sun altitude
Rises 17:44:07 0° 336° (NNW) 3,453 ? -14.4°
Reaches altitude 10° 17:46:58 10° 347° (NNW) 2,495 ? -14.9°
Maximum altitude 17:52:01 30° 47° (NE) 1,449 ? -15.8°
Enters shadow 17:53:46 25° 79° (E) 1,590 ? -16.1°
Drops below altitude 10° 17:56:48 10° 108° (ESE) 2,362 - -16.7°
Sets 17:59:25 0° 119° (ESE) 3,241 - -17.1°
